Skip Page Navigation
NASA JPL Caltech
NASA Logo - Jet Propulsion Laboratory + View the NASA Portal
+ Center for Near-Earth Object Studies
JPL Home Earth Solar System Stars & Galaxies Technology
JPL Solar System Dynamics
BODIES ORBITS EPHEMERIDES TOOLS PHYSICAL DATA DISCOVERY FAQ SITE MAP
IMPORTANT: The SSD Announcement email list is now available. Major changes are coming in the near future, including possible hostname and/or URL changes. To be notified of such changes, subscribe to this email list.

Please visit this page for more details.


JPL Small-Body Database Browser
Search: [ help ]  
193227 (2000 RP53)
Classification: Inner Main-belt Asteroid          SPK-ID: 2193227
Ephemeris | Orbit Diagram | Orbital Elements | Mission Design | Physical Parameters | Discovery Circumstances ]

[ show orbit diagram ]
Orbital Elements at Epoch 2459000.5 (2020-May-31.0) TDB
Reference: JPL 16 (heliocentric ecliptic J2000)
 Element Value Uncertainty (1-sigma)   Units 
e .04793782260908429 5.3788e-08  
a 1.916652990640034 7.7839e-09 au
q 1.824772819571561 1.0296e-07 au
i 22.66526124318391 6.1515e-06 deg
node 187.9484394439456 1.2234e-05 deg
peri 220.3286029955305 5.0587e-05 deg
M 113.1893186315682 4.9498e-05 deg
tp 2458695.769019962030
(2019-Jul-31.26901996)
0.00013296 TDB
period 969.2005759903334
2.65
5.9042e-06
1.616e-08
d
yr
n .3714401424412593 2.2627e-09 deg/d
Q 2.008533161708507 8.157e-09 au
  Orbit Determination Parameters
   # obs. used (total)      404  
   data-arc span      6519 days (17.85 yr)  
   first obs. used      2000-09-03  
   last obs. used      2018-07-10  
   planetary ephem.      DE431  
   SB-pert. ephem.      SB431-N16  
   condition code      0  
   norm. resid. RMS      .65103  
   source      ORB  
   producer      Otto Matic  
   solution date      2019-Jul-13 08:40:42  

Additional Information
 Earth MOID = .842216 au 
 Jupiter MOID = 3.11126 au 
 T_jup = 3.834 
[ show covariance matrix ]

Ephemeris | Orbit Diagram | Orbital Elements | Mission Design | Physical Parameters | Discovery Circumstances ]

Physical Parameter Table
Parameter Symbol Value Units Sigma Reference Notes
absolute magnitude H 17.0   n/a MPO449954  

193227 (2000 RP53)          Discovered 2000-Sep-07 by Spacewatch at Kitt Peak
Reference: 20081113/Numbers.arcLast Updated: 2008-11-17
Ephemeris | Orbit Diagram | Orbital Elements | Mission Design | Physical Parameters | Discovery Circumstances ]
ABOUT SSD CREDITS/AWARDS PRIVACY/COPYRIGHT GLOSSARY LINKS
FirstGov 2020-Feb-20 16:46 UT
(server date/time)  
NASA Home Page
Site Manager:   Ryan S. Park
Webmaster  Alan B. Chamberlin